HULIANWANG DIGUI-99 (66415 NORAD) Tracking and Keplerian Element Data

This shows tracking and keplerian element data for the satellite.

Feedback or suggestion? Click here.




ElementValue
Catalog66415
NameHULIANWANG DIGUI-99
Epoch Orbit551
Epoch Day352.79832196
Epoch Year2025
RAAN237.0175
Inclination50.0047
Eccentricity9.7E-05
Argument of Perigee345.2256
Mean Anonmoly14.8624
Mean Motion14.12769145
Decay Rate1.32E-06
L11 66415U 25258D 25352.79832196 .00000132 00000+0 15384-3 0 9995
L22 66415 50.0047 237.0175 0000970 345.2256 14.8624 14.12769145 5514



Live tracking and technical data element details for HULIANWANG DIGUI-99 (NORAD 66415). HULIANWANG DIGUI-99 can be tracked NOW for your location showing map with azimuth and elevation plus other details from your city location.







IsCatalogInMostPopularTable: catalog: 66415, numindb: 6
Update: records affected: 1



GetName: 66415 HULIANWANG DIGUI-99

Hit Count: updated at: Tue, 21 Apr 2026 19:48:52 GMT